Time,TemperatureF,DewpointF,PressureIn,WindDirection,WindDirectionDegrees,WindSpeedMPH,WindSpeedGustMPH,Humidity,HourlyPrecipIn,Conditions,Clouds,dailyrainin,SoftwareType,DateUTC
2013-10-04 00:00:00,74.9,68.7,29.89,North,0,0.0,0.0,81,0.00,,BKN100,0.00,VWS V14.01,2013-10-04 05:00:00,
2013-10-04 00:10:00,74.8,69.3,29.89,North,0,0.0,0.0,83,0.00,,BKN100,0.00,VWS V14.01,2013-10-04 05:10:00,
2013-10-04 00:20:00,74.7,69.2,29.89,North,0,0.0,0.0,83,0.00,,BKN100,0.00,VWS V14.01,2013-10-04 05:20:00,
2013-10-04 00:30:00,74.5,69.3,29.90,North,0,0.0,0.0,84,0.00,,BKN100,0.00,VWS V14.01,2013-10-04 05:30:00,
2013-10-04 00:40:00,74.3,69.5,29.90,North,0,0.0,0.0,85,0.00,,BKN100,0.00,VWS V14.01,2013-10-04 05:40:00,
2013-10-04 00:50:00,74.2,69.4,29.90,North,0,0.0,0.0,85,0.00,,BKN100,0.00,VWS V14.01,2013-10-04 05:50:00,
2013-10-04 01:00:00,74.0,69.6,29.89,North,0,0.0,0.0,86,0.00,,BKN100,0.00,VWS V14.01,2013-10-04 06:00:00,
2013-10-04 01:10:00,73.9,69.8,29.89,North,0,0.0,0.0,87,0.00,,BKN100,0.00,VWS V14.01,2013-10-04 06:10:00,
2013-10-04 01:20:00,73.8,69.7,29.89,North,0,0.0,0.0,87,0.00,,BKN100,0.00,VWS V14.01,2013-10-04 06:20:00,
2013-10-04 01:30:00,73.6,69.8,29.89,North,0,0.0,0.0,88,0.00,,BKN100,0.00,VWS V14.01,2013-10-04 06:30:00,
2013-10-04 01:40:00,73.5,69.7,29.89,North,0,0.0,0.0,88,0.00,,BKN100,0.00,VWS V14.01,2013-10-04 06:40:00,
2013-10-04 01:50:00,73.5,69.7,29.90,North,0,0.0,0.0,88,0.00,,BKN100,0.00,VWS V14.01,2013-10-04 06:50:00,
2013-10-04 02:00:00,73.5,69.7,29.90,North,0,0.0,0.0,88,0.00,,BKN100,0.00,VWS V14.01,2013-10-04 07:00:00,
2013-10-04 02:10:00,73.4,70.0,29.90,North,0,0.0,0.0,89,0.00,,BKN100,0.00,VWS V14.01,2013-10-04 07:10:00,
2013-10-04 02:20:00,73.4,70.0,29.89,North,0,0.0,0.0,89,0.00,,BKN100,0.00,VWS V14.01,2013-10-04 07:20:00,
2013-10-04 02:30:00,73.4,70.0,29.89,North,0,0.0,0.0,89,0.00,,BKN100,0.00,VWS V14.01,2013-10-04 07:30:00,
2013-10-04 02:40:00,73.3,70.2,29.89,North,0,0.0,0.0,90,0.00,,BKN100,0.00,VWS V14.01,2013-10-04 07:40:00,
2013-10-04 02:50:00,73.1,70.0,29.89,North,0,0.0,0.0,90,0.00,,BKN100,0.00,VWS V14.01,2013-10-04 07:50:00,
2013-10-04 03:00:00,73.0,69.9,29.89,North,0,0.0,0.0,90,0.00,,BKN100,0.00,VWS V14.01,2013-10-04 08:00:00,
2013-10-04 03:10:00,72.9,69.8,29.89,North,0,0.0,0.0,90,0.00,,BKN100,0.00,VWS V14.01,2013-10-04 08:10:00,
2013-10-04 03:20:00,72.9,70.1,29.89,North,0,0.0,0.0,91,0.00,,BKN100,0.00,VWS V14.01,2013-10-04 08:20:00,
2013-10-04 03:30:00,73.0,70.2,29.89,North,0,0.0,0.0,91,0.00,,BKN100,0.00,VWS V14.01,2013-10-04 08:30:00,
2013-10-04 03:40:00,73.0,70.2,29.89,North,0,0.0,0.0,91,0.00,,BKN100,0.00,VWS V14.01,2013-10-04 08:40:00,
2013-10-04 03:50:00,73.0,70.2,29.89,North,0,0.0,0.0,91,0.00,,BKN100,0.00,VWS V14.01,2013-10-04 08:50:00,
2013-10-04 04:00:00,73.0,70.5,29.89,North,0,0.0,0.0,92,0.00,,BKN100,0.00,VWS V14.01,2013-10-04 09:00:00,
2013-10-04 04:10:00,72.9,70.1,29.89,North,0,0.0,0.0,91,0.00,,BKN100,0.00,VWS V14.01,2013-10-04 09:10:00,
2013-10-04 04:20:00,72.7,70.2,29.89,North,0,0.0,0.0,92,0.00,,BKN100,0.00,VWS V14.01,2013-10-04 09:20:00,
2013-10-04 04:30:00,72.5,70.1,29.89,North,0,0.0,0.0,92,0.00,,BKN100,0.00,VWS V14.01,2013-10-04 09:30:00,
2013-10-04 04:40:00,72.3,69.8,29.89,North,0,0.0,0.0,92,0.00,,BKN100,0.00,VWS V14.01,2013-10-04 09:40:00,
2013-10-04 04:50:00,72.2,69.8,29.88,North,0,0.0,0.0,92,0.00,,BKN100,0.00,VWS V14.01,2013-10-04 09:50:00,
2013-10-04 05:00:00,72.0,69.6,29.88,North,0,0.0,0.0,92,0.00,,BKN100,0.00,VWS V14.01,2013-10-04 10:00:00,
2013-10-04 05:10:00,71.9,69.4,29.88,North,0,0.0,0.0,92,0.00,,BKN100,0.00,VWS V14.01,2013-10-04 10:10:00,
2013-10-04 05:20:00,71.8,69.3,29.89,North,0,0.0,0.0,92,0.00,,BKN100,0.00,VWS V14.01,2013-10-04 10:20:00,
2013-10-04 05:30:00,71.6,69.2,29.89,North,0,0.0,0.0,92,0.00,,BKN100,0.00,VWS V14.01,2013-10-04 10:30:00,
2013-10-04 05:40:00,71.5,69.4,29.89,North,0,0.0,0.0,93,0.00,,BKN100,0.00,VWS V14.01,2013-10-04 10:40:00,
2013-10-04 05:50:00,71.3,69.2,29.89,North,0,0.0,0.0,93,0.00,,BKN100,0.00,VWS V14.01,2013-10-04 10:50:00,
2013-10-04 06:00:00,71.4,69.3,29.89,North,0,0.0,0.0,93,0.00,,BKN100,0.00,VWS V14.01,2013-10-04 11:00:00,
2013-10-04 06:10:00,71.4,69.3,29.89,North,0,0.0,0.0,93,0.00,,BKN100,0.00,VWS V14.01,2013-10-04 11:10:00,
2013-10-04 06:20:00,71.5,69.4,29.89,North,0,0.0,0.0,93,0.00,,BKN100,0.00,VWS V14.01,2013-10-04 11:20:00,
2013-10-04 06:30:00,71.5,69.4,29.89,North,0,0.0,0.0,93,0.00,,BKN100,0.00,VWS V14.01,2013-10-04 11:30:00,
2013-10-04 06:40:00,71.4,69.3,29.89,North,0,0.0,0.0,93,0.00,,BKN100,0.00,VWS V14.01,2013-10-04 11:40:00,
2013-10-04 06:50:00,71.3,69.2,29.89,North,0,0.0,0.0,93,0.00,,BKN100,0.00,VWS V14.01,2013-10-04 11:50:00,
2013-10-04 07:00:00,71.1,69.0,29.90,North,0,0.0,0.0,93,0.00,,BKN100,0.00,VWS V14.01,2013-10-04 12:00:00,
2013-10-04 07:10:00,71.0,68.9,29.90,North,0,0.0,0.0,93,0.00,,BKN100,0.00,VWS V14.01,2013-10-04 12:10:00,
2013-10-04 07:20:00,70.8,68.7,29.90,North,0,0.0,0.0,93,0.00,,BKN100,0.00,VWS V14.01,2013-10-04 12:20:00,
2013-10-04 07:30:00,70.6,68.8,29.90,North,0,0.0,0.0,94,0.00,,BKN100,0.00,VWS V14.01,2013-10-04 12:30:00,
2013-10-04 07:40:00,70.4,68.6,29.90,North,0,0.0,0.0,94,0.00,,BKN100,0.00,VWS V14.01,2013-10-04 12:40:00,
2013-10-04 07:50:00,70.4,68.6,29.90,North,0,0.0,0.0,94,0.00,,BKN100,0.00,VWS V14.01,2013-10-04 12:50:00,
2013-10-04 08:00:00,70.4,68.6,29.90,North,0,0.0,0.0,94,0.00,,BKN100,0.00,VWS V14.01,2013-10-04 13:00:00,
2013-10-04 08:10:00,70.4,68.6,29.90,North,0,0.0,0.0,94,0.00,,BKN100,0.00,VWS V14.01,2013-10-04 13:10:00,
2013-10-04 08:20:00,70.6,68.8,29.90,North,0,0.0,0.0,94,0.00,,BKN100,0.00,VWS V14.01,2013-10-04 13:20:00,
2013-10-04 08:30:00,70.7,68.9,29.90,North,0,0.0,0.0,94,0.00,,BKN100,0.00,VWS V14.01,2013-10-04 13:30:00,
2013-10-04 08:40:00,71.0,69.2,29.90,North,0,0.0,0.0,94,0.00,,BKN100,0.00,VWS V14.01,2013-10-04 13:40:00,
2013-10-04 08:50:00,71.4,69.6,29.91,North,0,0.0,0.0,94,0.00,,BKN100,0.00,VWS V14.01,2013-10-04 13:50:00,
2013-10-04 09:00:00,71.7,69.9,29.91,North,0,0.0,0.0,94,0.00,,BKN100,0.00,VWS V14.01,2013-10-04 14:00:00,
2013-10-04 09:10:00,72.0,70.2,29.91,North,0,0.0,0.0,94,0.00,,BKN100,0.00,VWS V14.01,2013-10-04 14:10:00,
2013-10-04 09:20:00,72.2,70.4,29.91,North,0,0.0,0.0,94,0.00,,BKN100,0.00,VWS V14.01,2013-10-04 14:20:00,
2013-10-04 09:30:00,72.5,70.7,29.92,North,0,0.0,0.0,94,0.00,,BKN100,0.00,VWS V14.01,2013-10-04 14:30:00,
2013-10-04 09:40:00,72.9,71.1,29.92,North,0,0.0,0.0,94,0.00,,BKN100,0.00,VWS V14.01,2013-10-04 14:40:00,
2013-10-04 09:50:00,73.5,71.7,29.92,North,0,0.0,0.0,94,0.00,,BKN100,0.00,VWS V14.01,2013-10-04 14:50:00,
2013-10-04 10:00:00,74.4,72.2,29.92,North,0,0.0,0.0,93,0.00,,BKN100,0.00,VWS V14.01,2013-10-04 15:00:00,
2013-10-04 10:10:00,75.1,72.3,29.92,North,0,0.0,0.0,91,0.00,,BKN100,0.00,VWS V14.01,2013-10-04 15:10:00,
2013-10-04 10:20:00,75.5,71.7,29.92,North,0,0.0,0.0,88,0.00,,BKN100,0.00,VWS V14.01,2013-10-04 15:20:00,
2013-10-04 10:30:00,76.0,71.9,29.92,North,0,0.0,0.0,87,0.00,,BKN100,0.00,VWS V14.01,2013-10-04 15:30:00,
2013-10-04 10:40:00,76.8,71.6,29.92,North,0,0.0,0.0,84,0.00,,BKN100,0.00,VWS V14.01,2013-10-04 15:40:00,
2013-10-04 10:50:00,77.5,71.2,29.92,North,0,0.0,0.0,81,0.00,,BKN100,0.00,VWS V14.01,2013-10-04 15:50:00,
2013-10-04 11:00:00,78.2,71.9,29.92,North,0,0.0,0.0,81,0.00,,BKN100,0.00,VWS V14.01,2013-10-04 16:00:00,
2013-10-04 11:10:00,79.2,71.4,29.92,North,0,0.0,0.0,77,0.00,,BKN100,0.00,VWS V14.01,2013-10-04 16:10:00,
2013-10-04 11:20:00,80.1,71.5,29.92,North,0,0.0,0.0,75,0.00,,BKN100,0.00,VWS V14.01,2013-10-04 16:20:00,
2013-10-04 11:30:00,80.4,71.0,29.92,North,0,0.0,0.0,73,0.00,,BKN100,0.00,VWS V14.01,2013-10-04 16:30:00,
2013-10-04 11:40:00,80.7,70.8,29.92,North,0,0.0,0.0,72,0.00,,BKN100,0.00,VWS V14.01,2013-10-04 16:40:00,
2013-10-04 11:50:00,81.2,70.5,29.91,North,0,0.0,0.0,70,0.00,,BKN100,0.00,VWS V14.01,2013-10-04 16:50:00,
2013-10-04 12:00:00,80.7,70.0,29.90,North,0,0.0,0.0,70,0.00,,BKN100,0.00,VWS V14.01,2013-10-04 17:00:00,
2013-10-04 12:10:00,80.8,70.1,29.90,North,0,0.0,0.0,70,0.00,,BKN100,0.00,VWS V14.01,2013-10-04 17:10:00,
2013-10-04 12:20:00,82.2,70.6,29.90,North,0,0.0,0.0,68,0.00,,BKN100,0.00,VWS V14.01,2013-10-04 17:20:00,
2013-10-04 12:30:00,83.5,70.1,29.90,North,0,0.0,0.0,64,0.00,,BKN100,0.00,VWS V14.01,2013-10-04 17:30:00,
2013-10-04 12:40:00,85.0,70.5,29.90,North,0,0.0,0.0,62,0.00,,BKN100,0.00,VWS V14.01,2013-10-04 17:40:00,
2013-10-04 12:50:00,85.2,70.2,29.90,North,0,0.0,0.0,61,0.00,,BKN100,0.00,VWS V14.01,2013-10-04 17:50:00,
2013-10-04 13:00:00,84.9,70.0,29.89,North,0,0.0,0.0,61,0.00,,BKN100,0.00,VWS V14.01,2013-10-04 18:00:00,
2013-10-04 13:10:00,86.0,70.0,29.89,North,0,0.0,0.0,59,0.00,,BKN100,0.00,VWS V14.01,2013-10-04 18:10:00,
2013-10-04 13:20:00,87.3,70.2,29.89,North,0,0.0,0.0,57,0.00,,BKN100,0.00,VWS V14.01,2013-10-04 18:20:00,
2013-10-04 13:30:00,87.6,71.0,29.88,North,0,0.0,0.0,58,0.00,,BKN100,0.00,VWS V14.01,2013-10-04 18:30:00,
2013-10-04 13:40:00,87.9,71.3,29.88,North,0,0.0,0.0,58,0.00,,BKN100,0.00,VWS V14.01,2013-10-04 18:40:00,
2013-10-04 13:50:00,88.2,70.5,29.87,North,0,0.0,0.0,56,0.00,,BKN100,0.00,VWS V14.01,2013-10-04 18:50:00,
2013-10-04 14:00:00,88.8,70.6,29.87,North,0,0.0,0.0,55,0.00,,BKN100,0.00,VWS V14.01,2013-10-04 19:00:00,
2013-10-04 14:10:00,89.4,70.0,29.87,North,0,0.0,0.0,53,0.00,,BKN100,0.00,VWS V14.01,2013-10-04 19:10:00,
2013-10-04 14:20:00,89.6,70.2,29.86,North,0,0.0,0.0,53,0.00,,BKN100,0.00,VWS V14.01,2013-10-04 19:20:00,
2013-10-04 14:30:00,89.9,69.4,29.86,North,0,0.0,0.0,51,0.00,,BKN100,0.00,VWS V14.01,2013-10-04 19:30:00,
2013-10-04 14:40:00,89.8,69.3,29.86,North,0,0.0,0.0,51,0.00,,BKN100,0.00,VWS V14.01,2013-10-04 19:40:00,
2013-10-04 14:50:00,88.6,71.4,29.85,North,0,0.0,0.0,57,0.00,,BKN100,0.00,VWS V14.01,2013-10-04 19:50:00,
2013-10-04 15:00:00,88.4,70.2,29.85,North,0,0.0,0.0,55,0.00,,BKN100,0.00,VWS V14.01,2013-10-04 20:00:00,
2013-10-04 15:10:00,88.2,68.9,29.85,North,0,0.0,0.0,53,0.00,,BKN100,0.00,VWS V14.01,2013-10-04 20:10:00,
2013-10-04 15:20:00,88.2,68.9,29.84,North,0,0.0,0.0,53,0.00,,BKN100,0.00,VWS V14.01,2013-10-04 20:20:00,
2013-10-04 15:30:00,88.5,68.6,29.84,North,0,0.0,0.0,52,0.00,,BKN100,0.00,VWS V14.01,2013-10-04 20:30:00,
2013-10-04 15:40:00,88.7,68.8,29.84,North,0,0.0,0.0,52,0.00,,BKN100,0.00,VWS V14.01,2013-10-04 20:40:00,
2013-10-04 15:50:00,89.7,69.8,29.84,North,0,0.0,0.0,52,0.00,,BKN100,0.00,VWS V14.01,2013-10-04 20:50:00,
2013-10-04 16:00:00,90.9,70.3,29.83,North,0,0.0,0.0,51,0.00,,BKN100,0.00,VWS V14.01,2013-10-04 21:00:00,
2013-10-04 16:10:00,91.6,69.8,29.83,North,0,0.0,0.0,49,0.00,,BKN100,0.00,VWS V14.01,2013-10-04 21:10:00,
2013-10-04 16:20:00,90.9,69.1,29.83,North,0,0.0,0.0,49,0.00,,BKN100,0.00,VWS V14.01,2013-10-04 21:20:00,
2013-10-04 16:30:00,89.8,69.3,29.83,North,0,0.0,0.0,51,0.00,,BKN100,0.00,VWS V14.01,2013-10-04 21:30:00,
2013-10-04 16:40:00,88.3,70.6,29.83,North,0,0.0,0.0,56,0.00,,BKN100,0.00,VWS V14.01,2013-10-04 21:40:00,
2013-10-04 16:50:00,87.6,68.9,29.83,North,0,0.0,0.0,54,0.00,,BKN100,0.00,VWS V14.01,2013-10-04 21:50:00,
2013-10-04 17:00:00,86.8,70.3,29.83,North,0,0.0,0.0,58,0.00,,BKN100,0.00,VWS V14.01,2013-10-04 22:00:00,
2013-10-04 17:10:00,86.1,69.6,29.83,North,0,0.0,0.0,58,0.00,,BKN100,0.00,VWS V14.01,2013-10-04 22:10:00,
2013-10-04 17:20:00,86.2,70.2,29.83,North,0,0.0,0.0,59,0.00,,BKN100,0.00,VWS V14.01,2013-10-04 22:20:00,
2013-10-04 17:30:00,86.3,69.8,29.83,North,0,0.0,0.0,58,0.00,,BKN100,0.00,VWS V14.01,2013-10-04 22:30:00,
2013-10-04 17:40:00,85.8,69.8,29.83,North,0,0.0,0.0,59,0.00,,BKN100,0.00,VWS V14.01,2013-10-04 22:40:00,
2013-10-04 17:50:00,85.1,69.7,29.82,North,0,0.0,0.0,60,0.00,,BKN100,0.00,VWS V14.01,2013-10-04 22:50:00,
2013-10-04 18:00:00,85.0,69.6,29.82,North,0,0.0,0.0,60,0.00,,BKN100,0.00,VWS V14.01,2013-10-04 23:00:00,
2013-10-04 18:10:00,84.8,69.4,29.82,North,0,0.0,0.0,60,0.00,,BKN100,0.00,VWS V14.01,2013-10-04 23:10:00,
2013-10-04 18:20:00,84.5,69.1,29.83,North,0,0.0,0.0,60,0.00,,BKN100,0.00,VWS V14.01,2013-10-04 23:20:00,
2013-10-04 18:30:00,84.4,69.5,29.83,North,0,0.0,0.0,61,0.00,,BKN100,0.00,VWS V14.01,2013-10-04 23:30:00,
2013-10-04 18:40:00,84.5,69.6,29.83,North,0,0.0,0.0,61,0.00,,BKN100,0.00,VWS V14.01,2013-10-04 23:40:00,
2013-10-04 18:50:00,84.5,69.6,29.83,North,0,0.0,0.0,61,0.00,,BKN100,0.00,VWS V14.01,2013-10-04 23:50:00,
2013-10-04 19:00:00,84.4,70.0,29.83,North,0,0.0,0.0,62,0.00,,BKN100,0.00,VWS V14.01,2013-10-05 00:00:00,
2013-10-04 19:10:00,84.6,70.2,29.83,North,0,0.0,0.0,62,0.00,,BKN100,0.00,VWS V14.01,2013-10-05 00:10:00,
2013-10-04 19:20:00,84.5,70.5,29.83,North,0,0.0,0.0,63,0.00,,BKN100,0.00,VWS V14.01,2013-10-05 00:20:00,
2013-10-04 19:30:00,84.1,70.6,29.84,North,0,0.0,0.0,64,0.00,,BKN100,0.00,VWS V14.01,2013-10-05 00:30:00,
2013-10-04 19:40:00,83.6,70.6,29.84,North,0,0.0,0.0,65,0.00,,BKN100,0.00,VWS V14.01,2013-10-05 00:40:00,
2013-10-04 19:50:00,83.3,70.8,29.84,North,0,0.0,0.0,66,0.00,,BKN100,0.00,VWS V14.01,2013-10-05 00:50:00,
2013-10-04 20:00:00,82.9,70.8,29.84,North,0,0.0,0.0,67,0.00,,BKN100,0.00,VWS V14.01,2013-10-05 01:00:00,
2013-10-04 20:10:00,82.5,70.9,29.84,North,0,0.0,0.0,68,0.00,,BKN100,0.00,VWS V14.01,2013-10-05 01:10:00,
2013-10-04 20:20:00,82.2,71.0,29.85,North,0,0.0,0.0,69,0.00,,BKN100,0.00,VWS V14.01,2013-10-05 01:20:00,
2013-10-04 20:30:00,81.9,70.7,29.86,North,0,0.0,0.0,69,0.00,,BKN100,0.00,VWS V14.01,2013-10-05 01:30:00,
2013-10-04 20:40:00,81.6,70.4,29.86,North,0,0.0,0.0,69,0.00,,BKN100,0.00,VWS V14.01,2013-10-05 01:40:00,
2013-10-04 20:50:00,81.3,70.6,29.86,North,0,0.0,0.0,70,0.00,,BKN100,0.00,VWS V14.01,2013-10-05 01:50:00,
2013-10-04 21:00:00,80.9,70.2,29.87,North,0,0.0,0.0,70,0.00,,BKN100,0.00,VWS V14.01,2013-10-05 02:00:00,
2013-10-04 21:10:00,80.6,69.9,29.87,North,0,0.0,0.0,70,0.00,,BKN100,0.00,VWS V14.01,2013-10-05 02:10:00,
2013-10-04 21:20:00,80.4,69.7,29.87,North,0,0.0,0.0,70,0.00,,BKN100,0.00,VWS V14.01,2013-10-05 02:20:00,
2013-10-04 21:30:00,80.1,69.4,29.88,North,0,0.0,0.0,70,0.00,,BKN100,0.00,VWS V14.01,2013-10-05 02:30:00,
2013-10-04 21:40:00,79.7,69.9,29.88,North,0,0.0,0.0,72,0.00,,BKN100,0.00,VWS V14.01,2013-10-05 02:40:00,
2013-10-04 21:50:00,79.3,69.9,29.89,North,0,0.0,0.0,73,0.00,,BKN100,0.00,VWS V14.01,2013-10-05 02:50:00,
2013-10-04 22:00:00,78.9,69.5,29.89,North,0,0.0,0.0,73,0.00,,BKN100,0.00,VWS V14.01,2013-10-05 03:00:00,
2013-10-04 22:10:00,78.6,69.6,29.89,North,0,0.0,0.0,74,0.00,,BKN100,0.00,VWS V14.01,2013-10-05 03:10:00,
2013-10-04 22:20:00,78.3,69.7,29.90,North,0,0.0,0.0,75,0.00,,BKN100,0.00,VWS V14.01,2013-10-05 03:20:00,
2013-10-04 22:30:00,78.1,69.9,29.90,North,0,0.0,0.0,76,0.00,,BKN100,0.00,VWS V14.01,2013-10-05 03:30:00,
2013-10-04 22:40:00,77.8,69.6,29.90,North,0,0.0,0.0,76,0.00,,BKN100,0.00,VWS V14.01,2013-10-05 03:40:00,
2013-10-04 22:50:00,77.5,69.7,29.90,North,0,0.0,0.0,77,0.00,,BKN100,0.00,VWS V14.01,2013-10-05 03:50:00,
2013-10-04 23:00:00,77.2,69.8,29.90,North,0,0.0,0.0,78,0.00,,BKN100,0.00,VWS V14.01,2013-10-05 04:00:00,
2013-10-04 23:10:00,76.9,69.9,29.90,North,0,0.0,0.0,79,0.00,,BKN100,0.00,VWS V14.01,2013-10-05 04:10:00,
2013-10-04 23:20:00,76.5,69.9,29.90,North,0,0.0,0.0,80,0.00,,BKN100,0.00,VWS V14.01,2013-10-05 04:20:00,
2013-10-04 23:30:00,76.2,69.9,29.90,North,0,0.0,0.0,81,0.00,,BKN100,0.00,VWS V14.01,2013-10-05 04:30:00,
2013-10-04 23:40:00,76.0,70.1,29.90,North,0,0.0,0.0,82,0.00,,BKN100,0.00,VWS V14.01,2013-10-05 04:40:00,
2013-10-04 23:50:00,75.8,70.3,29.90,North,0,0.0,0.0,83,0.00,,BKN100,0.00,VWS V14.01,2013-10-05 04:50:00,